Tracking 19250 objects as of 24-Sep-2018
HD Live streaming from Space Station
objects crossing your sky now

FENGYUN 1C DEB

Track FENGYUN 1C DEB now!
10-day predictions


NORAD ID: 32154
Int'l Code: 1999-025CSY
Perigee: 531.5 km
Apogee: 600.1 km
Inclination: 99.0 °
Period: 95.8 minutes
Semi major axis: 6936 km
RCS: 0.0067 m2 (small)
Launch date: May 10, 1999
Source: People's Republic of China (PRC)
Launch site: Taiyaun Space Center, China (TSC)

Note: This is SATELLITE DEBRIS
aabbcc
Your satellite tracking list
Your tracking list is empty




NASA's NSSDC Master Catalog

Two Line Element Set (TLE):
1 32154U 99025CSY 18266.41450320 +.00009519 +00000-0 +70021-3 0  9999
2 32154 099.0230 333.4154 0049444 032.3556 328.0680 15.02682006283035
Source of the keplerian elements: AFSPC